[[{"header":{"parameterUnit":"m.s-1","parameterCategory":2,"la1":30.2991,"la2":30.254,"lo1":-89.0895,"lo2":-89.0444,"dy":0.0017,"dx":0.0017,"nx":28,"ny":28,"refTime":"2025-01-10T03:00:00:Z","depth":"0","parameterNumber":2,"parameterNumberName":"U-component_of_CURRENTS"},"data":[0,0,0,0,0,0,0,0,0,0,0,0,0,0,0,0,0,0,0,0,0,0,0,0,0,0,0,0,0,0,0,0,0,0,0,0,0,0,0,0,0,0,0,0,0,0,0,0,0,0,0,0,0,0,0,0,0,0,-0.3035,-0.3035,0,-0.3075,-0.3076,-0.3076,-0.3029,-0.3027,-0.3026,-0.3024,-0.2998,-0.2999,-0.2999,0,0,0,0,0,0,0,0,0,0,0,0,0,-0.2945,-0.2947,-0.3035,-0.3035,-0.3036,-0.3075,-0.3076,-0.3076,-0.3029,-0.3027,-0.3025,-0.3024,-0.2998,-0.2999,-0.2999,0,0,0,0,0,0,0,0,0,0,0,0,0,-0.2982,-0.2947,-0.3035,-0.302,-0.3019,-0.3075,-0.3076,-0.3076,-0.3029,-0.3027,-0.3025,-0.3023,-0.2997,-0.2998,-0.3,-0.3052,0,0,-0.3003,-0.3003,0,0,0,0,0,0,0,0,-0.298,-0.2985,-0.3021,-0.3021,-0.302,-0.3047,-0.3035,-0.3066,-0.303,-0.3023,-0.3024,-0.3022,-0.3012,-0.3011,-0.3021,-0.305,-0.3049,-0.3003,-0.3004,-0.3004,-0.3004,0,0,0,0,0,0,0,-0.2977,-0.2983,-0.3048,-0.3022,-0.3022,-0.3021,-0.3023,-0.304,-0.3026,-0.3023,-0.302,-0.303,-0.301,-0.302,-0.302,-0.3049,-0.3003,-0.3004,-0.3004,-0.3005,-0.309,-0.3091,0,0,0,0,0,0,-0.2979,-0.2981,-0.3047,-0.305,-0.2997,-0.3024,-0.3027,-0.3038,-0.3027,-0.3025,-0.3032,-0.3028,-0.302,-0.3019,-0.3019,-0.3054,-0.3004,-0.3005,-0.3006,-0.3088,-0.309,-0.3092,0,0,0,0,0,0,-0.2977,-0.2985,-0.3045,-0.3018,-0.3026,-0.3028,-0.3042,-0.3041,-0.304,-0.3035,-0.303,-0.3031,-0.3018,-0.3017,-0.3034,-0.3053,-0.3005,-0.3006,-0.3086,-0.3089,-0.3091,-0.314,0,0,0,0,0,0,-0.2975,-0.2984,-0.2988,-0.3018,-0.3027,-0.3081,-0.3044,-0.3043,-0.3051,-0.3046,-0.3034,-0.303,-0.3016,-0.3032,-0.3035,-0.3053,-0.3007,-0.3084,-0.3087,-0.309,-0.3136,-0.3143,-0.315,0,0,0,0,0,-0.2971,-0.2992,-0.2988,-0.2996,-0.3034,-0.3083,-0.3087,-0.3079,-0.3054,-0.3067,-0.3055,-0.3029,-0.3052,-0.3035,-0.3037,-0.3056,-0.3083,-0.3086,-0.309,-0.3133,-0.3142,-0.315,0,0,0,0,0,0,-0.2954,-0.299,-0.2986,-0.3015,-0.3046,-0.3075,-0.3086,-0.3084,-0.3088,-0.3074,-0.3055,-0.3052,-0.3076,-0.3066,-0.3047,-0.3091,-0.3062,-0.3067,-0.3094,-0.3103,-0.3109,-0.3104,-0.3008,0,0,0,0,0,-0.2955,-0.2973,-0.3014,-0.3033,-0.3051,-0.3068,-0.3082,-0.3085,-0.3098,-0.3095,-0.309,-0.3086,-0.3099,-0.3097,-0.311,-0.3137,-0.3109,-0.3151,-0.3158,-0.3163,-0.3163,-0.3156,-0.3161,-0.3104,-0.3104,-0.3103,0,0,-0.2951,-0.2974,-0.2982,-0.303,-0.3047,-0.3089,-0.307,-0.3101,-0.3127,-0.3095,-0.3117,-0.3116,-0.3115,-0.3143,-0.3152,-0.3131,-0.3163,-0.3168,-0.3173,-0.3169,-0.316,-0.3165,-0.317,-0.3106,-0.3106,-0.3105,0,0,-0.2964,-0.2977,-0.3001,-0.3036,-0.3078,-0.3099,-0.311,-0.3146,-0.3149,-0.3184,-0.3165,-0.3174,-0.3194,-0.3195,-0.3197,-0.3253,-0.3206,-0.3257,-0.328,-0.3274,-0.3278,-0.3281,-0.3235,-0.3234,-0.3253,-0.3253,-0.3253,0,-0.2956,-0.2993,-0.3016,-0.3059,-0.3086,-0.3105,-0.3145,-0.317,-0.3203,-0.3212,-0.3194,-0.3226,-0.3219,-0.3249,-0.3263,-0.3267,-0.3241,-0.3245,-0.3281,-0.3283,-0.3286,-0.3238,-0.3236,-0.3255,-0.3255,-0.3255,-0.3255,0,-0.2993,-0.3026,-0.3048,-0.3101,-0.3138,-0.3177,-0.3222,-0.325,-0.3253,-0.327,-0.33,-0.3299,-0.3307,-0.3315,-0.3303,-0.3326,-0.3293,-0.3294,-0.3254,-0.3294,-0.3241,-0.3238,-0.3259,-0.3258,-0.3258,-0.3257,0,0,-0.2958,-0.3053,-0.3057,-0.3085,-0.3162,-0.3192,-0.3251,-0.3303,-0.3318,-0.335,-0.3364,-0.3395,-0.3379,-0.3381,-0.337,-0.3364,-0.3351,-0.3334,-0.3332,-0.3277,-0.3305,-0.3197,-0.3183,-0.3356,-0.3357,-0.3357,-0.3253,0,-0.2972,-0.3046,-0.3097,-0.3159,-0.3197,-0.3249,-0.3297,-0.3344,-0.3368,-0.3389,-0.3398,-0.3409,-0.341,-0.3398,-0.3402,-0.3366,-0.3349,-0.3377,-0.3284,-0.328,-0.3171,-0.3179,-0.3049,-0.2939,-0.325,-0.3249,-0.3249,0,-0.2982,-0.303,-0.3094,-0.3176,-0.3197,-0.3236,-0.3295,-0.3344,-0.3395,-0.341,-0.3435,-0.3435,-0.344,-0.3425,-0.3393,-0.3409,-0.3361,-0.333,-0.3325,-0.3205,-0.3167,-0.2954,-0.2921,-0.2903,-0.3244,-0.3244,-0.3245,0,-0.2918,-0.3022,-0.3063,-0.3095,-0.3196,-0.3223,-0.327,-0.3336,-0.3365,-0.3409,-0.3418,-0.3441,-0.3424,-0.3404,-0.3349,-0.3367,-0.3288,-0.3302,-0.316,-0.315,-0.301,-0.2987,-0.2937,-0.3271,-0.3272,-0.3272,-0.3272,0,-0.2903,-0.2931,-0.3031,-0.3049,-0.3085,-0.3175,-0.3208,-0.3262,-0.3325,-0.3345,-0.3407,-0.3409,-0.3419,-0.3382,-0.3341,-0.3225,-0.328,-0.3152,-0.312,-0.3021,-0.3002,-0.2955,-0.2994,-0.3268,-0.3269,-0.3269,-0.327,0,-0.2812,-0.2889,-0.2932,-0.3029,-0.3053,-0.3069,-0.3159,-0.3181,-0.3262,-0.3286,-0.3296,-0.3363,-0.3317,-0.3298,-0.3237,-0.3184,-0.304,-0.3046,-0.2907,-0.2861,-0.2709,-0.2755,-0.2667,-0.2587,-0.2869,-0.2866,-0.2863,0,-0.2768,-0.2783,-0.2875,-0.2888,-0.2923,-0.297,-0.2998,-0.3115,-0.3146,-0.3246,-0.324,-0.3238,-0.3192,-0.307,-0.2979,-0.2859,-0.2895,-0.2685,-0.2705,-0.2667,-0.2697,-0.2742,-0.2686,-0.253,-0.2525,-0.2521,-0.2517,0,-0.2661,-0.2695,-0.2725,-0.2757,-0.2785,-0.2822,-0.2877,-0.2897,-0.3026,-0.3052,-0.3066,-0.304,-0.2958,-0.2791,-0.2663,-0.2587,-0.262,-0.2592,-0.26,-0.246,-0.246,-0.2376,-0.262,-0.2479,-0.2483,-0.2486,-0.2488,-0.249,-0.2552,-0.2544,-0.2583,-0.2595,-0.2626,-0.263,-0.2604,-0.2682,-0.2696,-0.2706,-0.2814,-0.2743,-0.2673,-0.2468,-0.2378,-0.2216,-0.2318,-0.217,-0.2234,-0.2287,-0.2199,-0.2337,-0.2141,-0.2142,-0.2144,-0.2145,-0.2147,0,-0.2402,-0.241,-0.2417,-0.2424,-0.2384,-0.2459,-0.2481,-0.2425,-0.2375,-0.2448,-0.2427,-0.2389,-0.2215,-0.2171,-0.2023,-0.1912,-0.1872,-0.1881,-0.1936,-0.1897,-0.2035,-0.2009,-0.1719,-0.1719,-0.1719,-0.1719,-0.1719,-0.1719,-0.2322,-0.2273,-0.2279,-0.2165,-0.2161,-0.205,-0.2018,-0.1966,-0.1976,-0.1919,-0.1949,-0.2023,-0.2021,-0.212,-0.1941,-0.182,-0.1792,-0.1721,-0.177,-0.1907,-0.1941,-0.1973,-0.1956,-0.1659,-0.166,-0.1544,-0.1544,-0.1544]},{"header":{"parameterUnit":"m.s-1","parameterCategory":2,"la1":30.2991,"la2":30.254,"lo1":-89.0895,"lo2":-89.0444,"dy":0.0017,"dx":0.0017,"nx":28,"ny":28,"refTime":"2025-01-10T03:00:00:Z","depth":"0","parameterNumber":3,"parameterNumberName":"V-component_of_CURRENTS"},"data":[0,0,0,0,0,0,0,0,0,0,0,0,0,0,0,0,0,0,0,0,0,0,0,0,0,0,0,0,0,0,0,0,0,0,0,0,0,0,0,0,0,0,0,0,0,0,0,0,0,0,0,0,0,0,0,0,0,0,-0.0464,-0.0463,0,-0.0361,-0.036,-0.0358,-0.0283,-0.0283,-0.0282,-0.0282,-0.0115,-0.0111,-0.0107,0,0,0,0,0,0,0,0,0,0,0,0,0,-0.0528,-0.0528,-0.0464,-0.0463,-0.0462,-0.0361,-0.036,-0.0358,-0.0283,-0.0283,-0.0282,-0.0282,-0.0116,-0.0112,-0.0107,0,0,0,0,0,0,0,0,0,0,0,0,0,-0.0468,-0.0528,-0.0464,-0.0414,-0.0409,-0.0362,-0.036,-0.0358,-0.0283,-0.0283,-0.0282,-0.0281,-0.0118,-0.0112,-0.0106,-0.0082,0,0,-0.0088,-0.0085,0,0,0,0,0,0,0,0,-0.0472,-0.0466,-0.0422,-0.0417,-0.0411,-0.0336,-0.0321,-0.0263,-0.0283,-0.0328,-0.0282,-0.0281,-0.0185,-0.0174,-0.0153,-0.0074,-0.0067,-0.0087,-0.0083,-0.0081,-0.0079,0,0,0,0,0,0,0,-0.0476,-0.0469,-0.0421,-0.0421,-0.0415,-0.0374,-0.0365,-0.031,-0.0259,-0.0324,-0.0319,-0.0312,-0.0181,-0.0159,-0.0149,-0.0064,-0.0087,-0.0082,-0.0078,-0.0076,0.0062,0.0062,0,0,0,0,0,0,-0.0498,-0.0474,-0.0424,-0.0418,-0.0443,-0.0374,-0.0364,-0.0359,-0.026,-0.0246,-0.0312,-0.0309,-0.017,-0.0156,-0.0142,-0.0108,-0.0081,-0.0075,-0.0072,0.0062,0.0062,0.0062,0,0,0,0,0,0,-0.05,-0.0495,-0.0428,-0.0445,-0.0434,-0.0374,-0.0369,-0.0357,-0.0336,-0.0253,-0.0236,-0.0303,-0.0169,-0.0151,-0.0096,-0.0101,-0.0072,-0.0067,0.0062,0.0062,0.0062,-0.0038,0,0,0,0,0,0,-0.0502,-0.0496,-0.0501,-0.0447,-0.0434,-0.0412,-0.0369,-0.0356,-0.0333,-0.0327,-0.0239,-0.0223,-0.0167,-0.0106,-0.0091,-0.0092,-0.0062,0.0062,0.0062,0.0062,-0.0035,-0.0042,-0.0047,0,0,0,0,0,-0.0505,-0.052,-0.0502,-0.0496,-0.0442,-0.0413,-0.0402,-0.0355,-0.0334,-0.0332,-0.0269,-0.0226,-0.0094,-0.0101,-0.0083,-0.0083,0.0062,0.0062,0.0062,-0.0032,-0.004,-0.0047,0,0,0,0,0,0,-0.0548,-0.0512,-0.0491,-0.0493,-0.046,-0.0401,-0.0396,-0.0364,-0.0313,-0.0305,-0.0225,-0.0204,-0.0158,-0.0106,-0.0116,-0.0041,-0.0009,-0.0005,-0.0087,-0.0094,-0.01,-0.0121,-0.0057,0,0,0,0,0,-0.0562,-0.0563,-0.0518,-0.0519,-0.0508,-0.0453,-0.0435,-0.0405,-0.0354,-0.0332,-0.027,-0.0202,-0.0144,-0.011,-0.0052,-0.0012,0.0048,0.0002,-0.0004,-0.001,-0.0014,0.007,0.007,0.0063,0.0063,0.0063,0,0,-0.0578,-0.0559,-0.0558,-0.0529,-0.0498,-0.0494,-0.044,-0.0423,-0.0412,-0.0321,-0.0287,-0.0224,-0.0138,-0.0095,-0.0069,-0.0051,0.0023,-0.001,-0.0016,-0.0016,0.007,0.0071,0.0071,0.0063,0.0063,0.0063,0,0,-0.062,-0.0595,-0.0614,-0.0595,-0.0563,-0.0527,-0.0528,-0.0475,-0.0444,-0.0406,-0.0337,-0.0277,-0.0193,-0.0131,-0.0088,-0.0092,-0.0015,-0.0074,-0.0119,-0.0038,-0.0037,-0.0035,0.0036,0.0045,-0.0075,-0.0075,-0.0075,0,-0.0643,-0.0659,-0.0614,-0.0629,-0.062,-0.0551,-0.0568,-0.0526,-0.0461,-0.0434,-0.041,-0.0274,-0.0208,-0.0139,-0.0143,-0.0106,-0.0052,-0.0102,-0.0047,-0.0044,-0.0041,0.0032,0.0043,-0.008,-0.0079,-0.0079,-0.0078,0,-0.07,-0.0711,-0.0721,-0.0714,-0.0697,-0.07,-0.0644,-0.0616,-0.0569,-0.0519,-0.0446,-0.035,-0.0269,-0.0239,-0.0193,-0.0135,-0.0102,-0.007,-0.0035,-0.0046,0.0031,0.0045,-0.0087,-0.0085,-0.0084,-0.0082,0,0,-0.0752,-0.0763,-0.0765,-0.078,-0.0745,-0.0738,-0.0716,-0.0672,-0.065,-0.0573,-0.0533,-0.0431,-0.0371,-0.0319,-0.0244,-0.0175,-0.0107,-0.0124,-0.0117,-0.0065,0.0066,0.0122,0.0143,-0.0067,-0.0065,-0.0064,0.0108,0,-0.081,-0.0869,-0.0845,-0.0882,-0.0906,-0.0839,-0.0824,-0.077,-0.0703,-0.0644,-0.0529,-0.0463,-0.0403,-0.0363,-0.0285,-0.015,-0.0076,-0.0157,0.008,0.0087,0.0129,0.0159,0.0216,0.0377,0.0121,0.0124,0.0125,0,-0.0874,-0.0905,-0.0965,-0.0973,-0.0973,-0.0976,-0.093,-0.0906,-0.0799,-0.0744,-0.0651,-0.0557,-0.0442,-0.039,-0.0169,-0.0225,-0.0094,0.0013,0.0023,0.012,0.0169,0.0351,0.0412,0.0617,0.0147,0.0145,0.0144,0,-0.0944,-0.0982,-0.1036,-0.1041,-0.1037,-0.1038,-0.102,-0.0939,-0.0911,-0.0802,-0.0759,-0.0611,-0.0524,-0.0352,-0.0134,-0.0151,0.0119,0.013,0.0308,0.0314,0.0433,0.0446,0.0712,0.029,0.029,0.029,0.0289,0,-0.1019,-0.1058,-0.1076,-0.1107,-0.1152,-0.1113,-0.1122,-0.1075,-0.0997,-0.0958,-0.0818,-0.0739,-0.051,-0.0326,-0.0143,0.0132,0.0121,0.0312,0.0369,0.0399,0.0406,0.0647,0.0715,0.0296,0.0295,0.0293,0.0292,0,-0.1091,-0.1105,-0.1167,-0.1186,-0.1193,-0.1222,-0.1206,-0.12,-0.1114,-0.1055,-0.1024,-0.0823,-0.0579,-0.0329,-0.0027,0.0132,0.0519,0.048,0.0494,0.0549,0.0874,0.0933,0.1243,0.137,0.0691,0.0693,0.0696,0,-0.1134,-0.1178,-0.1235,-0.1275,-0.1289,-0.1318,-0.1333,-0.1271,-0.1251,-0.1094,-0.1066,-0.0824,-0.0625,-0.0161,0.0165,0.0513,0.0666,0.0758,0.0737,0.0919,0.1027,0.1063,0.1148,0.0859,0.0862,0.0865,0.0867,0,-0.121,-0.1229,-0.1279,-0.1369,-0.1409,-0.1444,-0.1451,-0.1457,-0.136,-0.1269,-0.1101,-0.0927,-0.0466,-0.0039,0.041,0.0622,0.0914,0.0822,0.1028,0.1198,0.1241,0.138,0.0707,0.0891,0.0889,0.0887,0.0886,0.0885,-0.125,-0.1308,-0.1375,-0.1452,-0.1503,-0.1547,-0.1564,-0.1533,-0.1477,-0.131,-0.1138,-0.0814,-0.0209,0.0442,0.0683,0.1202,0.1141,0.1354,0.1416,0.144,0.1554,0.092,0.115,0.115,0.1149,0.1148,0.1148,0,-0.1296,-0.1363,-0.1451,-0.1536,-0.1596,-0.1601,-0.1619,-0.1584,-0.1502,-0.1291,-0.1073,-0.0383,0.0224,0.0778,0.1492,0.1777,0.1839,0.1921,0.2002,0.2065,0.1542,0.1541,0.1845,0.1845,0.1845,0.1844,0.1844,0.1844,-0.1323,-0.1418,-0.1469,-0.1583,-0.1638,-0.1672,-0.1674,-0.1588,-0.1429,-0.1038,-0.0641,-0.0328,0.0472,0.1598,0.2257,0.2326,0.2567,0.2551,0.2672,0.2318,0.2269,0.2223,0.2243,0.2689,0.269,0.3191,0.3196,0.32]}],[{"header":{"parameterUnit":"m.s-1","parameterCategory":2,"la1":30.2991,"la2":30.254,"lo1":-89.0895,"lo2":-89.0444,"dy":0.0017,"dx":0.0017,"nx":28,"ny":28,"refTime":"2025-01-10T03:00:00:Z","depth":"2","parameterNumber":2,"parameterNumberName":"U-component_of_CURRENTS"},"data":[0,0,0,0,0,0,0,0,0,0,0,0,0,0,0,0,0,0,0,0,0,0,0,0,0,0,0,0,0,0,0,0,0,0,0,0,0,0,0,0,0,0,0,0,0,0,0,0,0,0,0,0,0,0,0,0,0,0,-0.278,-0.278,0,-0.2822,-0.2822,-0.2823,-0.2791,-0.279,-0.2789,-0.2788,-0.2776,-0.2777,-0.2777,0,0,0,0,0,0,0,0,0,0,0,0,0,-0.2692,-0.2693,-0.278,-0.278,-0.2781,-0.2822,-0.2822,-0.2823,-0.2792,-0.279,-0.2789,-0.2788,-0.2776,-0.2777,-0.2777,0,0,0,0,0,0,0,0,0,0,0,0,0,-0.2729,-0.2694,-0.2779,-0.2772,-0.2772,-0.2822,-0.2822,-0.2823,-0.2792,-0.279,-0.2788,-0.2787,-0.2775,-0.2776,-0.2778,-0.2819,0,0,-0.2781,-0.2781,0,0,0,0,0,0,0,0,-0.2727,-0.2732,-0.2773,-0.2773,-0.2773,-0.2802,-0.2787,-0.282,-0.2792,-0.2782,-0.2788,-0.2786,-0.2782,-0.2783,-0.2792,-0.2818,-0.2818,-0.2781,-0.2782,-0.2782,-0.2783,0,0,0,0,0,0,0,-0.2725,-0.273,-0.2794,-0.2774,-0.2774,-0.2774,-0.2777,-0.2793,-0.2788,-0.2783,-0.2781,-0.279,-0.2781,-0.2791,-0.2791,-0.2818,-0.2781,-0.2782,-0.2783,-0.2783,-0.2865,-0.2867,0,0,0,0,0,0,-0.2726,-0.2728,-0.2792,-0.2795,-0.2748,-0.2777,-0.278,-0.2792,-0.2789,-0.2788,-0.2792,-0.2789,-0.279,-0.279,-0.2791,-0.283,-0.2782,-0.2783,-0.2784,-0.2864,-0.2866,-0.2867,0,0,0,0,0,0,-0.2724,-0.2731,-0.2791,-0.2764,-0.2772,-0.2781,-0.2794,-0.2794,-0.2799,-0.2797,-0.2794,-0.2796,-0.2789,-0.2789,-0.2808,-0.2829,-0.2784,-0.2785,-0.2862,-0.2864,-0.2866,-0.2915,0,0,0,0,0,0,-0.2721,-0.273,-0.2735,-0.2765,-0.2774,-0.2824,-0.2796,-0.2796,-0.2809,-0.2805,-0.28,-0.2798,-0.2787,-0.2807,-0.281,-0.283,-0.2786,-0.286,-0.2863,-0.2866,-0.2911,-0.2919,-0.2925,0,0,0,0,0,-0.2718,-0.2736,-0.2735,-0.2743,-0.2782,-0.2826,-0.283,-0.2828,-0.281,-0.2823,-0.2819,-0.2797,-0.2826,-0.281,-0.2812,-0.2833,-0.2859,-0.2862,-0.2865,-0.2908,-0.2917,-0.2924,0,0,0,0,0,0,-0.2699,-0.2736,-0.2735,-0.2762,-0.2793,-0.2821,-0.2832,-0.2834,-0.2843,-0.2833,-0.2821,-0.2819,-0.2846,-0.2838,-0.282,-0.2867,-0.2838,-0.2842,-0.287,-0.2878,-0.2885,-0.2878,-0.2787,0,0,0,0,0,-0.27,-0.2719,-0.2758,-0.2777,-0.2794,-0.2813,-0.2828,-0.2834,-0.2849,-0.285,-0.2851,-0.2852,-0.2867,-0.2868,-0.2882,-0.2909,-0.2885,-0.2924,-0.2931,-0.2937,-0.2934,-0.2932,-0.2938,-0.2878,-0.2878,-0.2878,0,0,-0.2697,-0.272,-0.2729,-0.2774,-0.2792,-0.283,-0.2817,-0.2848,-0.2874,-0.285,-0.2877,-0.288,-0.2882,-0.2912,-0.2922,-0.2903,-0.2939,-0.2941,-0.2946,-0.294,-0.2936,-0.2942,-0.2947,-0.2881,-0.288,-0.288,0,0,-0.2707,-0.2723,-0.2745,-0.2778,-0.2818,-0.2839,-0.2851,-0.2888,-0.2895,-0.2933,-0.292,-0.2934,-0.2958,-0.2962,-0.2966,-0.302,-0.2979,-0.3025,-0.3047,-0.3046,-0.305,-0.3054,-0.3015,-0.3014,-0.3022,-0.3022,-0.3022,0,-0.27,-0.2734,-0.2759,-0.2797,-0.2823,-0.2846,-0.2882,-0.2908,-0.2945,-0.2958,-0.2945,-0.2985,-0.2982,-0.3015,-0.3028,-0.3033,-0.3012,-0.3014,-0.3053,-0.3056,-0.3059,-0.3018,-0.3017,-0.3025,-0.3025,-0.3024,-0.3024,0,-0.2731,-0.2762,-0.2782,-0.2833,-0.2868,-0.2904,-0.2949,-0.298,-0.2991,-0.3011,-0.3049,-0.3053,-0.3068,-0.3078,-0.3066,-0.3093,-0.3063,-0.3065,-0.3028,-0.3067,-0.3022,-0.302,-0.3029,-0.3028,-0.3027,-0.3026,0,0,-0.2697,-0.2785,-0.2789,-0.2816,-0.2889,-0.2917,-0.2976,-0.3028,-0.305,-0.3087,-0.3109,-0.3143,-0.3135,-0.3139,-0.3133,-0.313,-0.3124,-0.3103,-0.3102,-0.3055,-0.3092,-0.2987,-0.2974,-0.3132,-0.3132,-0.3133,-0.3046,0,-0.2708,-0.2773,-0.2821,-0.2879,-0.2913,-0.2967,-0.3014,-0.3065,-0.3096,-0.3126,-0.3144,-0.3163,-0.3163,-0.3159,-0.3165,-0.3137,-0.3124,-0.3145,-0.3069,-0.3066,-0.296,-0.297,-0.2758,-0.2657,-0.3044,-0.3044,-0.3043,0,-0.2712,-0.2756,-0.2815,-0.2893,-0.2913,-0.2953,-0.3017,-0.3067,-0.3127,-0.3149,-0.3182,-0.319,-0.3203,-0.3188,-0.3168,-0.318,-0.3138,-0.3112,-0.3109,-0.2991,-0.2957,-0.2684,-0.2638,-0.304,-0.304,-0.304,-0.304,0,-0.2652,-0.2747,-0.2786,-0.2816,-0.2913,-0.2942,-0.299,-0.3062,-0.3096,-0.3152,-0.3168,-0.3201,-0.3195,-0.318,-0.3134,-0.3149,-0.3086,-0.3099,-0.2964,-0.2955,-0.2748,-0.2719,-0.3074,-0.3074,-0.3074,-0.3075,-0.3075,0,-0.2633,-0.2661,-0.2758,-0.2775,-0.2814,-0.29,-0.2939,-0.2997,-0.3067,-0.3093,-0.3162,-0.317,-0.3193,-0.3167,-0.313,-0.3026,-0.3083,-0.2956,-0.2929,-0.2757,-0.2732,-0.305,-0.3049,-0.3071,-0.3072,-0.3073,-0.3073,0,-0.2549,-0.2621,-0.2662,-0.2758,-0.2783,-0.2804,-0.2897,-0.2922,-0.301,-0.3043,-0.3058,-0.3132,-0.3098,-0.3091,-0.3043,-0.2994,-0.2922,-0.2869,-0.2647,-0.2595,-0.279,-0.2792,-0.2711,-0.2707,-0.2703,-0.27,-0.2697,0,-0.2507,-0.2521,-0.2613,-0.2627,-0.2663,-0.2715,-0.2746,-0.2863,-0.2896,-0.3004,-0.3002,-0.3015,-0.2973,-0.2873,-0.2788,-0.2681,-0.2798,-0.2439,-0.2438,-0.2773,-0.2755,-0.2763,-0.277,-0.2173,-0.2167,-0.2161,-0.2157,0,-0.2409,-0.2443,-0.2474,-0.2506,-0.2538,-0.2576,-0.2634,-0.2653,-0.2782,-0.281,-0.2827,-0.2805,-0.2739,-0.2537,-0.2426,-0.235,-0.2445,-0.2324,-0.272,-0.2309,-0.2261,-0.2246,-0.2271,-0.2108,-0.2113,-0.2116,-0.2119,-0.2121,-0.2314,-0.2307,-0.2345,-0.2358,-0.2394,-0.2398,-0.2372,-0.2444,-0.2454,-0.2459,-0.2568,-0.2465,-0.2446,-0.2155,-0.203,-0.1941,-0.2117,-0.2034,-0.2052,-0.2076,-0.204,-0.199,-0.1776,-0.1779,-0.1782,-0.1784,-0.1786,0,-0.2181,-0.2187,-0.2193,-0.2201,-0.2167,-0.2241,-0.2259,-0.2199,-0.2141,-0.2181,-0.2156,-0.1929,-0.1781,-0.177,-0.1549,-0.1502,-0.1503,-0.1447,-0.1456,-0.1504,-0.1547,-0.1487,-0.1075,-0.1073,-0.1071,-0.1069,0,0,-0.2111,-0.2064,-0.2063,-0.196,-0.1959,-0.1858,-0.1825,-0.1763,-0.1744,-0.1635,-0.1585,-0.1701,-0.1723,-0.1413,-0.1328,-0.1167,-0.1326,-0.1104,-0.1672,-0.1731,-0.1772,-0.1879,-0.184,0,0,0,0,0]},{"header":{"parameterUnit":"m.s-1","parameterCategory":2,"la1":30.2991,"la2":30.254,"lo1":-89.0895,"lo2":-89.0444,"dy":0.0017,"dx":0.0017,"nx":28,"ny":28,"refTime":"2025-01-10T03:00:00:Z","depth":"2","parameterNumber":3,"parameterNumberName":"V-component_of_CURRENTS"},"data":[0,0,0,0,0,0,0,0,0,0,0,0,0,0,0,0,0,0,0,0,0,0,0,0,0,0,0,0,0,0,0,0,0,0,0,0,0,0,0,0,0,0,0,0,0,0,0,0,0,0,0,0,0,0,0,0,0,0,-0.032,-0.0319,0,-0.0233,-0.0232,-0.0231,-0.0164,-0.0164,-0.0164,-0.0163,-0.0016,-0.0013,-0.0009,0,0,0,0,0,0,0,0,0,0,0,0,0,-0.0365,-0.0364,-0.032,-0.0319,-0.0318,-0.0233,-0.0232,-0.023,-0.0164,-0.0164,-0.0163,-0.0163,-0.0017,-0.0013,-0.0009,0,0,0,0,0,0,0,0,0,0,0,0,0,-0.0316,-0.0364,-0.032,-0.0277,-0.0272,-0.0233,-0.0232,-0.023,-0.0165,-0.0164,-0.0163,-0.0163,-0.0019,-0.0013,-0.0008,0.0013,0,0,0.0008,0.001,0,0,0,0,0,0,0,0,-0.0319,-0.0314,-0.0284,-0.028,-0.0275,-0.0211,-0.0194,-0.0147,-0.0165,-0.0203,-0.0163,-0.0162,-0.0078,-0.0067,-0.005,0.0019,0.0026,0.0008,0.0012,0.0014,0.0015,0,0,0,0,0,0,0,-0.0323,-0.0317,-0.0283,-0.0283,-0.0277,-0.024,-0.0233,-0.0184,-0.0142,-0.02,-0.0195,-0.0189,-0.0074,-0.0055,-0.0046,0.0028,0.0008,0.0013,0.0016,0.0018,0.0137,0.0137,0,0,0,0,0,0,-0.0342,-0.0321,-0.0286,-0.0281,-0.0298,-0.024,-0.0232,-0.023,-0.0143,-0.0131,-0.019,-0.0187,-0.0065,-0.0052,-0.004,-0.001,0.0014,0.0019,0.0022,0.0137,0.0137,0.0137,0,0,0,0,0,0,-0.0344,-0.034,-0.0289,-0.03,-0.0292,-0.0241,-0.0239,-0.0229,-0.0211,-0.0137,-0.0123,-0.0183,-0.0064,-0.0048,-0.0002,-0.0004,0.0021,0.0026,0.0137,0.0137,0.0137,0.0051,0,0,0,0,0,0,-0.0345,-0.0341,-0.0347,-0.0302,-0.0292,-0.0277,-0.0239,-0.0228,-0.0209,-0.0204,-0.0126,-0.0112,-0.0062,-0.001,0.0004,0.0004,0.003,0.0137,0.0137,0.0137,0.0053,0.0048,0.0042,0,0,0,0,0,-0.0347,-0.0363,-0.0348,-0.0344,-0.0302,-0.0278,-0.0269,-0.0229,-0.021,-0.0209,-0.0154,-0.0114,-0.0,-0.0006,0.001,0.0012,0.0137,0.0137,0.0137,0.0056,0.0049,0.0043,0,0,0,0,0,0,-0.0384,-0.0357,-0.0339,-0.0345,-0.0318,-0.0268,-0.0264,-0.0237,-0.0193,-0.0187,-0.0115,-0.0097,-0.0058,-0.0011,-0.0019,0.0047,0.0075,0.0078,0.0008,0.0002,-0.0003,-0.0021,0.0035,0,0,0,0,0,-0.0397,-0.0401,-0.0365,-0.0369,-0.036,-0.0313,-0.0299,-0.0273,-0.023,-0.021,-0.0157,-0.0097,-0.0045,-0.0015,0.0035,0.0071,0.0125,0.0084,0.0078,0.0073,0.007,0.0147,0.0148,0.0137,0.0137,0.0137,0,0,-0.0411,-0.0398,-0.0399,-0.0377,-0.0351,-0.0349,-0.0303,-0.0289,-0.028,-0.0201,-0.0172,-0.0117,-0.0041,-0.0003,0.002,0.0037,0.0104,0.0073,0.0068,0.0068,0.0147,0.0149,0.015,0.0137,0.0137,0.0137,0,0,-0.045,-0.0432,-0.0451,-0.0435,-0.041,-0.038,-0.0381,-0.0337,-0.031,-0.0278,-0.0217,-0.0164,-0.0091,-0.0034,0.0004,-0.0,0.0068,0.0014,-0.0023,0.0052,0.0053,0.0055,0.0117,0.0126,0.0015,0.0015,0.0015,0,-0.0469,-0.0487,-0.0451,-0.0466,-0.0459,-0.0401,-0.0417,-0.0381,-0.0326,-0.0302,-0.0282,-0.0163,-0.0104,-0.004,-0.0044,-0.0012,0.0035,-0.0007,0.0044,0.0047,0.0051,0.0114,0.0124,0.0011,0.0011,0.0011,0.0012,0,-0.0522,-0.0534,-0.0544,-0.0542,-0.0528,-0.0533,-0.0485,-0.0462,-0.0421,-0.0378,-0.0314,-0.0228,-0.0156,-0.0129,-0.0088,-0.0033,-0.0007,0.0023,0.0056,0.0047,0.0114,0.0126,0.0005,0.0006,0.0007,0.0008,0,0,-0.0568,-0.0581,-0.0584,-0.0599,-0.0571,-0.0567,-0.0548,-0.0511,-0.0494,-0.0425,-0.039,-0.0297,-0.0245,-0.0198,-0.013,-0.0065,-0.0002,-0.0021,-0.0015,0.0031,0.0155,0.0185,0.0202,0.0035,0.0037,0.0038,0.0188,0,-0.062,-0.0675,-0.0656,-0.0692,-0.0715,-0.0658,-0.0645,-0.0599,-0.0542,-0.0491,-0.0385,-0.0327,-0.0271,-0.0236,-0.0163,-0.0044,0.0027,-0.0046,0.0165,0.0171,0.0193,0.0216,0.018,0.0312,0.0201,0.0203,0.0204,0,-0.0677,-0.0707,-0.0763,-0.0774,-0.0776,-0.0781,-0.0745,-0.0724,-0.063,-0.0583,-0.0498,-0.0413,-0.0307,-0.0257,-0.0058,-0.011,0.0011,0.0108,0.0116,0.0184,0.0225,0.0307,0.0339,0.0226,0.0224,0.0222,0.0221,0,-0.0739,-0.0777,-0.0827,-0.0833,-0.0834,-0.0837,-0.0824,-0.0755,-0.0735,-0.0636,-0.0602,-0.0464,-0.0387,-0.0227,-0.0032,-0.0044,0.0194,0.021,0.0357,0.0361,0.0392,0.0395,0.0361,0.0361,0.0361,0.036,0.036,0,-0.0806,-0.0843,-0.0864,-0.0893,-0.0939,-0.0907,-0.0921,-0.0881,-0.0816,-0.0788,-0.0657,-0.059,-0.0375,-0.0212,-0.0042,0.0195,0.0194,0.0359,0.0408,0.036,0.0358,0.0333,0.0327,0.0366,0.0365,0.0364,0.0363,0,-0.0868,-0.0883,-0.0944,-0.0967,-0.0976,-0.1007,-0.1003,-0.1002,-0.093,-0.0885,-0.0857,-0.0676,-0.0461,-0.0232,0.0044,0.0186,0.0406,0.0496,0.0418,0.0454,0.0522,0.051,0.0665,0.0667,0.0669,0.0671,0.0672,0,-0.0907,-0.0948,-0.1008,-0.1049,-0.1065,-0.1099,-0.1118,-0.1069,-0.1058,-0.0929,-0.0907,-0.0694,-0.0521,-0.0112,0.0171,0.0482,0.0488,0.0624,0.0601,0.0524,0.0556,0.0541,0.0527,0.0609,0.061,0.0611,0.0611,0,-0.0976,-0.0996,-0.1045,-0.1136,-0.118,-0.122,-0.1235,-0.1246,-0.1168,-0.1094,-0.0953,-0.0802,-0.041,-0.0074,0.0319,0.0495,0.0563,0.0647,0.0617,0.0528,0.0482,0.0509,0.0496,0.0617,0.0617,0.0616,0.0616,0.0616,-0.1015,-0.107,-0.1136,-0.1214,-0.127,-0.1318,-0.1339,-0.1317,-0.1275,-0.1134,-0.0995,-0.0722,-0.0413,0.0153,0.0421,0.0667,0.0665,0.073,0.0724,0.0718,0.0674,0.0634,0.0789,0.079,0.079,0.079,0.079,0,-0.106,-0.1122,-0.1208,-0.1295,-0.1358,-0.1368,-0.1394,-0.1364,-0.1295,-0.1123,-0.0938,-0.0568,-0.0186,0.0141,0.0536,0.0765,0.074,0.0798,0.0717,0.0711,0.0705,0.0656,0.077,0.077,0.0771,0.0771,0,0,-0.1087,-0.1176,-0.1222,-0.1337,-0.1396,-0.1437,-0.1444,-0.1364,-0.1232,-0.1035,-0.0822,-0.0552,-0.0161,0.0111,0.0394,0.0597,0.0595,0.0615,0.061,0.0475,0.0466,0.0646,0.0562,0,0,0,0,0]}],[{"header":{"parameterUnit":"m.s-1","parameterCategory":2,"la1":30.2991,"la2":30.254,"lo1":-89.0895,"lo2":-89.0444,"dy":0.0017,"dx":0.0017,"nx":28,"ny":28,"refTime":"2025-01-10T03:00:00:Z","depth":"4","parameterNumber":2,"parameterNumberName":"U-component_of_CURRENTS"},"data":[0,0,0,0,0,0,0,0,0,0,0,0,0,0,0,0,0,0,0,0,0,0,0,0,0,0,0,0,0,0,0,0,0,0,0,0,0,0,0,0,0,0,0,0,0,0,0,0,0,0,0,0,0,0,0,0,0,0,-0.1999,-0.2,0,-0.208,-0.2081,-0.2081,-0.2124,-0.2124,-0.2124,-0.2125,-0.2194,-0.2196,-0.2198,0,0,0,0,0,0,0,0,0,0,0,0,0,-0.1886,-0.1887,-0.1999,-0.2001,-0.2002,-0.208,-0.2081,-0.2082,-0.2124,-0.2124,-0.2124,-0.2125,-0.2194,-0.2196,-0.2198,0,0,0,0,0,0,0,0,0,0,0,0,0,-0.1946,-0.1888,-0.1999,-0.2034,-0.2038,-0.208,-0.2081,-0.2082,-0.2124,-0.2124,-0.2124,-0.2125,-0.2193,-0.2196,-0.2198,-0.2206,0,0,-0.2206,-0.2207,0,0,0,0,0,0,0,0,-0.1942,-0.1949,-0.2027,-0.2031,-0.2036,-0.2094,-0.2066,-0.2123,-0.2124,-0.2089,-0.2125,-0.2125,-0.2161,-0.2166,-0.2178,-0.2209,-0.2212,-0.2206,-0.2207,-0.2208,-0.2209,0,0,0,0,0,0,0,-0.1938,-0.1946,-0.2029,-0.2029,-0.2034,-0.2046,-0.2055,-0.2077,-0.212,-0.2092,-0.2096,-0.2108,-0.2163,-0.2175,-0.218,-0.2213,-0.2206,-0.2208,-0.2209,-0.221,-0.2334,-0.2336,0,0,0,0,0,0,-0.1932,-0.1942,-0.2027,-0.2032,-0.1991,-0.2048,-0.2058,-0.2073,-0.212,-0.2129,-0.2107,-0.2109,-0.2171,-0.2177,-0.2182,-0.2271,-0.2208,-0.2211,-0.2212,-0.2332,-0.2335,-0.2337,0,0,0,0,0,0,-0.1929,-0.1938,-0.2024,-0.199,-0.2002,-0.205,-0.2067,-0.2075,-0.2119,-0.2132,-0.214,-0.2147,-0.2171,-0.2179,-0.2234,-0.2271,-0.2212,-0.2214,-0.233,-0.2333,-0.2336,-0.2398,0,0,0,0,0,0,-0.1925,-0.1937,-0.1961,-0.199,-0.2004,-0.207,-0.2067,-0.2076,-0.2124,-0.2129,-0.2168,-0.2173,-0.2172,-0.223,-0.2236,-0.2273,-0.2216,-0.2328,-0.2332,-0.2335,-0.2394,-0.2403,-0.2411,0,0,0,0,0,-0.1921,-0.1947,-0.1961,-0.1972,-0.203,-0.2072,-0.2081,-0.2113,-0.2126,-0.2153,-0.2183,-0.2174,-0.2256,-0.2234,-0.224,-0.2279,-0.2326,-0.2331,-0.2335,-0.239,-0.2401,-0.241,0,0,0,0,0,0,-0.1912,-0.1955,-0.1971,-0.2011,-0.2049,-0.208,-0.2112,-0.2133,-0.2178,-0.2192,-0.2199,-0.2207,-0.2269,-0.2267,-0.2243,-0.2325,-0.2289,-0.2295,-0.2329,-0.2339,-0.2348,-0.2335,-0.2218,0,0,0,0,0,-0.192,-0.1953,-0.1992,-0.2028,-0.205,-0.2087,-0.2115,-0.214,-0.2176,-0.2197,-0.2227,-0.2257,-0.2286,-0.2308,-0.2333,-0.238,-0.2355,-0.2408,-0.2417,-0.2424,-0.2419,-0.2425,-0.2433,-0.235,-0.235,-0.235,0,0,-0.1928,-0.1956,-0.1977,-0.2029,-0.2061,-0.2102,-0.2106,-0.2158,-0.2199,-0.2197,-0.2271,-0.2292,-0.2306,-0.236,-0.2387,-0.2366,-0.2433,-0.2429,-0.2435,-0.2426,-0.243,-0.2438,-0.2445,-0.2353,-0.2352,-0.2352,0,0,-0.1947,-0.1985,-0.2016,-0.2053,-0.211,-0.2135,-0.2157,-0.2212,-0.2247,-0.2313,-0.2321,-0.2364,-0.2418,-0.2431,-0.2442,-0.2512,-0.2479,-0.2528,-0.2559,-0.2566,-0.2573,-0.2578,-0.2545,-0.2547,-0.253,-0.253,-0.253,0,-0.1956,-0.1998,-0.2033,-0.2072,-0.2109,-0.2153,-0.2196,-0.2238,-0.2307,-0.2338,-0.2348,-0.2432,-0.2448,-0.2496,-0.252,-0.253,-0.2514,-0.2519,-0.2575,-0.258,-0.2584,-0.2549,-0.255,-0.2533,-0.2533,-0.2532,-0.2532,0,-0.1985,-0.2036,-0.206,-0.2122,-0.2167,-0.2214,-0.2271,-0.2328,-0.2376,-0.241,-0.2488,-0.2514,-0.2555,-0.2574,-0.2569,-0.2615,-0.2587,-0.2586,-0.2545,-0.2596,-0.2556,-0.2556,-0.2538,-0.2537,-0.2536,-0.2535,0,0,-0.1959,-0.2061,-0.2073,-0.2112,-0.2199,-0.2233,-0.2314,-0.2384,-0.243,-0.2504,-0.2555,-0.2617,-0.2631,-0.2643,-0.2651,-0.2659,-0.2673,-0.2638,-0.2637,-0.2595,-0.2663,-0.2484,-0.2466,-0.2687,-0.2687,-0.2688,-0.2617,0,-0.1972,-0.2047,-0.2101,-0.2181,-0.2221,-0.2295,-0.2358,-0.2431,-0.2492,-0.2553,-0.2596,-0.2648,-0.2658,-0.2679,-0.2695,-0.2681,-0.2678,-0.269,-0.2627,-0.2625,-0.2452,-0.2463,-0.2691,-0.2617,-0.2617,-0.2617,-0.2617,0,-0.1972,-0.2025,-0.2104,-0.2204,-0.223,-0.2289,-0.2389,-0.2454,-0.2545,-0.2592,-0.2656,-0.2684,-0.2724,-0.2717,-0.2722,-0.2731,-0.2701,-0.2683,-0.268,-0.2488,-0.2446,-0.256,-0.2616,-0.2616,-0.2616,-0.2616,-0.2616,0,-0.1908,-0.2022,-0.2085,-0.2122,-0.2243,-0.2299,-0.2367,-0.2467,-0.2517,-0.2615,-0.2648,-0.2709,-0.2731,-0.273,-0.2703,-0.2718,-0.2676,-0.2688,-0.2496,-0.2482,-0.2637,-0.2632,-0.2677,-0.2677,-0.2677,-0.2678,-0.2678,0,-0.1875,-0.1929,-0.2067,-0.2098,-0.2171,-0.2272,-0.235,-0.2427,-0.2523,-0.256,-0.266,-0.2675,-0.2738,-0.2726,-0.2701,-0.2578,-0.2675,-0.2483,-0.2451,-0.2664,-0.2663,-0.2636,-0.2632,-0.2675,-0.2675,-0.2676,-0.2676,0,-0.1783,-0.1881,-0.1955,-0.2094,-0.2141,-0.2192,-0.2328,-0.2369,-0.2483,-0.2531,-0.2561,-0.2649,-0.2625,-0.2643,-0.2618,-0.2541,-0.2464,-0.2397,-0.2594,-0.2577,-0.2265,-0.2266,-0.2168,-0.2161,-0.2155,-0.215,-0.2146,0,-0.1737,-0.1769,-0.1925,-0.1966,-0.2034,-0.2131,-0.2184,-0.2326,-0.2361,-0.2484,-0.2476,-0.2511,-0.2542,-0.2346,-0.2403,-0.2316,-0.2298,-0.2241,-0.2278,-0.2233,-0.2213,-0.2223,-0.2232,-0.2137,-0.2136,-0.2134,-0.2132,0,-0.1636,-0.1711,-0.1771,-0.1854,-0.1927,-0.1991,-0.208,-0.2086,-0.2226,-0.2356,-0.2309,-0.2283,-0.2243,-0.2212,-0.215,-0.2104,-0.2272,-0.218,-0.2192,-0.2227,-0.2195,-0.2183,-0.2198,-0.2112,-0.2115,-0.2117,-0.2118,0,-0.1559,-0.1574,-0.1661,-0.1713,-0.1798,-0.1809,-0.1883,-0.1909,-0.196,-0.2104,-0.2078,-0.2122,-0.2208,-0.2098,-0.2049,-0.1977,-0.1958,-0.1902,-0.1929,-0.1952,-0.1916,-0.1846,-0.1609,0,0,0,0,0,-0.147,-0.1467,-0.1507,-0.1557,-0.1631,-0.1674,-0.1787,-0.1864,-0.2002,-0.1906,-0.1985,-0.1937,-0.1868,-0.19,-0.1776,-0.1955,-0.1968,-0.1805,-0.192,-0.1999,-0.2023,-0.2002,0,0,0,0,0,0,-0.1409,-0.1445,-0.1452,-0.1405,-0.1404,-0.1463,-0.1524,-0.1625,-0.1584,-0.173,-0.1694,-0.1811,-0.1765,-0.1891,-0.1731,-0.1738,-0.1768,-0.1848,-0.1842,-0.1986,-0.2007,-0.2026,-0.2013,0,0,0,0,0]},{"header":{"parameterUnit":"m.s-1","parameterCategory":2,"la1":30.2991,"la2":30.254,"lo1":-89.0895,"lo2":-89.0444,"dy":0.0017,"dx":0.0017,"nx":28,"ny":28,"refTime":"2025-01-10T03:00:00:Z","depth":"4","parameterNumber":3,"parameterNumberName":"V-component_of_CURRENTS"},"data":[0,0,0,0,0,0,0,0,0,0,0,0,0,0,0,0,0,0,0,0,0,0,0,0,0,0,0,0,0,0,0,0,0,0,0,0,0,0,0,0,0,0,0,0,0,0,0,0,0,0,0,0,0,0,0,0,0,0,-0.0208,-0.0208,0,-0.0154,-0.0153,-0.0152,-0.0108,-0.0108,-0.0108,-0.0107,0.0002,0.0004,0.0007,0,0,0,0,0,0,0,0,0,0,0,0,0,-0.0224,-0.0224,-0.0208,-0.0208,-0.0207,-0.0154,-0.0153,-0.0152,-0.0108,-0.0108,-0.0107,-0.0107,0.0001,0.0004,0.0007,0,0,0,0,0,0,0,0,0,0,0,0,0,-0.0197,-0.0224,-0.0208,-0.018,-0.0177,-0.0154,-0.0153,-0.0152,-0.0108,-0.0108,-0.0107,-0.0107,-0.0,0.0003,0.0007,0.0023,0,0,0.0019,0.0021,0,0,0,0,0,0,0,0,-0.0198,-0.0196,-0.0185,-0.0182,-0.0179,-0.0139,-0.0119,-0.0091,-0.0108,-0.0132,-0.0107,-0.0107,-0.0042,-0.0035,-0.0023,0.0028,0.0033,0.002,0.0022,0.0024,0.0025,0,0,0,0,0,0,0,-0.02,-0.0198,-0.0185,-0.0184,-0.0181,-0.0154,-0.0149,-0.0113,-0.0088,-0.013,-0.0127,-0.0125,-0.004,-0.0027,-0.002,0.0035,0.002,0.0023,0.0026,0.0027,0.0113,0.0113,0,0,0,0,0,0,-0.0214,-0.02,-0.0186,-0.0183,-0.019,-0.0154,-0.0149,-0.0151,-0.0089,-0.008,-0.0125,-0.0123,-0.0034,-0.0025,-0.0016,0.0004,0.0024,0.0028,0.003,0.0113,0.0113,0.0113,0,0,0,0,0,0,-0.0215,-0.0214,-0.0189,-0.0191,-0.0187,-0.0155,-0.0156,-0.015,-0.014,-0.0086,-0.0076,-0.0123,-0.0034,-0.0022,0.001,0.0009,0.0029,0.0033,0.0113,0.0113,0.0113,0.0047,0,0,0,0,0,0,-0.0216,-0.0214,-0.0222,-0.0193,-0.0187,-0.0184,-0.0157,-0.0149,-0.014,-0.0137,-0.0081,-0.007,-0.0032,0.0004,0.0014,0.0015,0.0036,0.0114,0.0113,0.0113,0.005,0.0045,0.0041,0,0,0,0,0,-0.0216,-0.0231,-0.0223,-0.0221,-0.0198,-0.0185,-0.018,-0.0153,-0.0141,-0.0142,-0.0103,-0.0072,0.001,0.0007,0.0019,0.0021,0.0114,0.0113,0.0113,0.0051,0.0046,0.0041,0,0,0,0,0,0,-0.0241,-0.0227,-0.0218,-0.0227,-0.0212,-0.0178,-0.0179,-0.0161,-0.0132,-0.0128,-0.0074,-0.0061,-0.0034,0.0002,-0.0004,0.0046,0.0068,0.007,0.0017,0.0012,0.0008,-0.0006,0.0039,0,0,0,0,0,-0.0252,-0.026,-0.0238,-0.0246,-0.0242,-0.0212,-0.0204,-0.0188,-0.0158,-0.0146,-0.0107,-0.0063,-0.0025,-0.0002,0.0035,0.0061,0.0104,0.0071,0.0067,0.0063,0.006,0.0126,0.0127,0.0113,0.0113,0.0113,0,0,-0.0263,-0.0257,-0.0261,-0.0252,-0.0237,-0.0239,-0.0206,-0.0201,-0.0197,-0.0138,-0.0121,-0.008,-0.0022,0.0006,0.0022,0.0036,0.0089,0.0063,0.0059,0.0059,0.0126,0.0127,0.0128,0.0112,0.0112,0.0112,0,0,-0.0293,-0.0286,-0.0303,-0.0296,-0.0284,-0.0264,-0.0267,-0.024,-0.0223,-0.0204,-0.0158,-0.0117,-0.0066,-0.002,0.001,0.0005,0.006,0.0015,-0.0013,0.005,0.0052,0.0054,0.0103,0.011,0.0017,0.0017,0.0017,0,-0.0309,-0.0327,-0.0305,-0.032,-0.032,-0.0281,-0.0297,-0.0274,-0.0239,-0.0223,-0.0209,-0.0121,-0.0075,-0.0025,-0.0028,-0.0004,0.0034,0.0,0.0045,0.0048,0.0051,0.01,0.0109,0.0014,0.0014,0.0014,0.0015,0,-0.0349,-0.0365,-0.0375,-0.038,-0.0375,-0.0383,-0.0353,-0.034,-0.0315,-0.0284,-0.0238,-0.0172,-0.0118,-0.0095,-0.0064,-0.0017,0.0002,0.0027,0.0055,0.0048,0.0101,0.0111,0.0009,0.001,0.0011,0.0012,0,0,-0.038,-0.0401,-0.0405,-0.0423,-0.041,-0.0412,-0.0404,-0.0382,-0.0374,-0.0324,-0.0301,-0.0228,-0.0188,-0.0151,-0.0097,-0.004,0.0013,-0.0005,-0.0,0.0037,0.0143,0.0119,0.0128,0.0045,0.0047,0.0048,0.0167,0,-0.0419,-0.0468,-0.046,-0.0498,-0.0519,-0.0485,-0.0482,-0.0454,-0.0416,-0.0382,-0.0297,-0.0256,-0.0209,-0.0183,-0.0119,-0.0025,0.0038,-0.0022,0.0149,0.0153,0.0129,0.0138,0.0053,0.0174,0.0177,0.0179,0.018,0,-0.046,-0.0489,-0.0542,-0.0565,-0.057,-0.0583,-0.0569,-0.056,-0.0494,-0.0461,-0.0396,-0.0329,-0.0243,-0.0199,-0.0036,-0.0079,0.0023,0.0104,0.0112,0.012,0.0149,0.0187,0.0199,0.0197,0.0196,0.0195,0.0194,0,-0.05,-0.0543,-0.0591,-0.06,-0.0617,-0.063,-0.063,-0.0588,-0.058,-0.0509,-0.0487,-0.0374,-0.0314,-0.0179,-0.0022,-0.0026,0.0164,0.0184,0.0266,0.0266,0.0281,0.0278,0.0315,0.0315,0.0314,0.0314,0.0314,0,-0.0542,-0.058,-0.062,-0.0647,-0.0699,-0.0686,-0.0715,-0.0691,-0.0652,-0.0637,-0.0535,-0.0486,-0.0305,-0.0175,-0.0033,0.0137,0.0161,0.0262,0.0297,0.0249,0.0241,0.0288,0.0283,0.0319,0.0318,0.0317,0.0316,0,-0.0575,-0.0602,-0.0664,-0.0706,-0.0725,-0.0761,-0.0787,-0.0795,-0.0751,-0.0725,-0.0705,-0.0564,-0.0397,-0.0211,0.0019,0.0117,0.0288,0.0353,0.0277,0.0306,0.035,0.034,0.0443,0.0443,0.0443,0.0444,0.0444,0,-0.0596,-0.0633,-0.0715,-0.0762,-0.0788,-0.0839,-0.0869,-0.085,-0.0847,-0.0766,-0.0747,-0.059,-0.0476,-0.0169,0.0017,0.0281,0.0325,0.04,0.0382,0.034,0.0365,0.0355,0.0345,0.0444,0.0444,0.0444,0.0444,0,-0.0632,-0.0667,-0.0717,-0.0817,-0.0875,-0.0926,-0.096,-0.0967,-0.0925,-0.0891,-0.0759,-0.0594,-0.0401,-0.0169,0.0037,0.0228,0.0333,0.0402,0.0403,0.0387,0.0343,0.0364,0.0355,0.0445,0.0445,0.0445,0.0445,0,-0.0653,-0.0701,-0.0776,-0.0855,-0.0934,-0.0982,-0.1001,-0.0976,-0.096,-0.0857,-0.0814,-0.0595,-0.0464,-0.0195,-0.0006,0.0171,0.0216,0.0261,0.0271,0.0272,0.018,0.0096,0.0153,0,0,0,0,0,-0.0667,-0.0723,-0.0806,-0.0891,-0.0969,-0.1006,-0.1042,-0.1041,-0.1005,-0.0916,-0.0858,-0.0669,-0.0375,-0.0244,-0.0067,-0.0021,0.0225,0.0187,0.0277,0.0448,0.0447,0.0365,0,0,0,0,0,0,-0.068,-0.0761,-0.0804,-0.0897,-0.0956,-0.1027,-0.105,-0.103,-0.0964,-0.0904,-0.0738,-0.0642,-0.0351,-0.0467,-0.0064,-0.0012,0.0063,0.0332,0.0335,0.0448,0.0448,0.0447,0.0362,0,0,0,0,0]}]]